Weather History for Central Park, NY

Change the Weather History Date:

Wednesday, March 28, 2012

  Actual Average Record
Temperature  
Mean Temperature 56 °F 46 °F  
Max Temperature 67 °F 54 °F 84 °F (1945)
Min Temperature 44 °F 39 °F 13 °F (1923)
Degree Days  
Heating Degree Days 9 19  
Month to date heating degree days 380 645  
Since 1 July heating degree days 3251 4167  
Cooling Degree Days 0 0  
Month to date cooling degree days 4 0  
Year to date cooling degree days 4 0  
Growing Degree Days 6 (Base 50)    
Moisture  
Dew Point 33 °F    
Average Humidity 42    
Maximum Humidity 60    
Minimum Humidity 23    
Precipitation  
Precipitation 0.02 in 0.15 in 2.98 in (2005)
Month to date precipitation 0.59 3.90  
Year to date precipitation 5.19 10.64  
Snow  
Snow 0.00 in 0.00 in 1.50 in (1984)
Month to date snowfall 0.0 3.7  
Since 1 July snowfall 7.4 25.0  
Snow Depth 0.00 in    
Sea Level Pressure  
Sea Level Pressure 29.79 in    
Wind  
Wind Speed 6 mph (WSW)    
Max Wind Speed 17 mph    
Max Gust Speed 26 mph    
Visibility 10 miles    
Events Rain    
T = Trace of Precipitation, MM = Missing Value Source: NWS Daily Summary

Daily Weather History Graph

Daily Weather History Graph

Search for Another Location

Airport:

Trip Planner

Search our weather history database for the weather conditions in past years. The results will help you decide how hot, cold, wet, or windy it might be!

Date:

Astronomy

Mar. 28, 2012 Rise Set
Actual Time 6:45 AM EDT 7:16 PM EDT
Civil Twilight 6:17 AM EDT 7:44 PM EDT
Nautical Twilight 5:45 AM EDT 8:17 PM EDT
Astronomical Twilight 5:12 AM EDT 8:50 PM EDT
Moon 9:58 AM EDT (3/28) 12:18 AM EDT (3/28)
Length of Visible Light 13h 26m
Length of Day
12h 31m
Waxing Crescent, 30% of the Moon is Illuminated
Mar 28
Waxing Crescent
Mar 30
First Quarter
Apr 6
Full
Apr 13
Last Quarter
Apr 21
New

Hourly Weather History & Observations

Time (EDT) Temp. Windchill Dew Point Humidity Pressure Visibility Wind Dir Wind Speed Gust Speed Precip Events Conditions
12:51 AM 46.9 °F - 10.9 °F 23% 30.14 in 10.0 mi SW 8.1 mph - N/A   Clear
1:51 AM 46.0 °F 43.1 °F 10.9 °F 24% 30.12 in 10.0 mi Variable 5.8 mph 16.1 mph N/A   Overcast
2:51 AM 46.0 °F 42.5 °F 12.9 °F 26% 30.09 in 10.0 mi SW 6.9 mph - N/A   Clear
3:51 AM 45.0 °F 41.8 °F 16.0 °F 31% 30.06 in 10.0 mi Variable 5.8 mph 17.3 mph N/A   Clear
4:51 AM 45.0 °F 41.8 °F 18.0 °F 34% 30.03 in 10.0 mi Variable 5.8 mph 19.6 mph N/A   Clear
5:51 AM 45.0 °F 38.5 °F 19.9 °F 37% 30.00 in 10.0 mi SW 13.8 mph 25.3 mph N/A   Partly Cloudy
6:51 AM 45.0 °F 41.8 °F 24.1 °F 44% 29.97 in 10.0 mi Variable 5.8 mph - N/A   Clear
7:51 AM 45.0 °F 41.2 °F 28.9 °F 53% 29.95 in 10.0 mi Variable 6.9 mph 26.5 mph N/A   Clear
8:51 AM 46.9 °F - 32.0 °F 56% 29.90 in 10.0 mi SW 11.5 mph 19.6 mph N/A   Clear
9:51 AM 50.0 °F - 33.1 °F 52% 29.86 in 10.0 mi Variable 6.9 mph - N/A   Clear
10:51 AM 52.0 °F - 33.1 °F 49% 29.82 in 10.0 mi SW 8.1 mph - N/A   Clear
11:51 AM 55.9 °F - 34.0 °F 44% 29.77 in 10.0 mi West 4.6 mph - N/A   Clear
12:51 PM 57.0 °F - 34.0 °F 42% 29.76 in 10.0 mi Calm Calm - N/A   Mostly Cloudy
1:51 PM 54.0 °F - 39.9 °F 59% 29.74 in 6.0 mi Variable 3.5 mph - 0.01 in Rain Light Rain
2:51 PM 59.0 °F - 39.9 °F 49% 29.66 in 10.0 mi Variable 6.9 mph - 0.00 in   Clear
3:51 PM 62.1 °F - 39.9 °F 44% 29.62 in 10.0 mi Calm Calm - N/A   Clear
4:51 PM 64.9 °F - 43.0 °F 45% 29.59 in 10.0 mi North - - N/A   Clear
5:51 PM 66.9 °F - 45.0 °F 45% 29.57 in 10.0 mi Calm Calm - N/A   Clear
6:51 PM 66.0 °F - 46.0 °F 48% 29.55 in 10.0 mi West 4.6 mph - N/A   Clear
7:51 PM 64.9 °F - 46.0 °F 50% 29.55 in 10.0 mi SW 9.2 mph 17.3 mph N/A   Overcast
8:51 PM 64.0 °F - 46.0 °F 52% 29.56 in 10.0 mi Variable 6.9 mph - N/A   Overcast
9:51 PM 63.0 °F - 46.9 °F 56% 29.57 in 10.0 mi West 4.6 mph - N/A   Overcast
10:51 PM 62.1 °F - 48.9 °F 62% 29.55 in 10.0 mi WSW 4.6 mph - 0.01 in   Overcast
11:51 PM 62.1 °F - 48.9 °F 62% 29.56 in 10.0 mi West 3.5 mph - N/A   Overcast